LUCH-5V

Last updated on Wed Sep 09 2026 00:03:00 GMT+0000 (Coordinated Universal Time)

1 39727U 14023A 26251.46388657 -.00000287 00000+0 00000+0 0 9997 2 39727 5.3348 68.8252 0002753 137.4913 42.9644 1.00271997 45193
UTC large
Height (km)
Speed (km/s)
/
Latitude / Longitude
Inclination (degrees)
Orbital Period (minutes)
Azimuth
Elevation
Range (km)
Doppler Factor

Next 0 passes for location: London (51.5072 / 0.1276)

No passes found over London.
LUCH-5V